Starlink 30252

operational
NORAD ID: 57607 Int'l Des: 2023-119 Owner: SPXS Country: US Constellation: starlink
LEOCIRCULAR

Starlink 30252について

説明を読み込み中...

リアルタイム位置

3D地球を読み込み中...

次回通過

高度履歴

Altitude vs Time

uPlot chart will show altitude changes over time

軌道要素

1 57607U 23119F 26034.92580440 .00000219 00000-0 31256-4 0 9991
2 57607 43.0026 252.6201 0000913 272.4075 87.6663 15.02537488138157
Epoch: Feb 3, 2026 • Age: 12 hours

現在のステータス

高度 570.6 km
速度 7.58 km/s
衛星直下点 -40.21°S, 109.21°W
打ち上げ日 Aug 11, 2023
運用期間 2.4 years
タイプ internet

技術仕様

分類 Payload
質量 730.00 kg
乾燥質量 700.00 kg
総質量 730.00 kg
長さ 0.30 m
直径 4.10 m
スパン 29.00 m
形状 Box + pan
製造者 SPXS
バスタイプ Starlink V2M
フェーズステータス In Orbit
所有者/国 SPXS/US

大規模コンステレーション

Loading constellations...